Regional Weather Roundup
Issued by NWS Albany, NY

Home | Current Version | Previous Version | Graphics & Text | Print | Product List | Glossary Off
Versions: 1 2 3 4 5 6 7 8 9 10 11 12 13 14 15 16 17 18 19 20 21 22 23 24 25 26 27 28

000
ASUS41 KALY 210310
RWRALY

NEW YORK STATE HOURLY WEATHER ROUNDUP
NATIONAL WEATHER SERVICE ALBANY NY
1000 PM EST MON NOV 20 2017

NOTE: "FAIR" INDICATES FEW OR NO CLOUDS BELOW 12,000 FEET WITH NO
SIGNIFICANT WEATHER AND/OR NO OBSTRUCTIONS TO VISIBILITY.

NYZ032-033-038>043-046>054-057>066-NYZ062>081-082-084-210400-
EAST


CITY           SKY/WX    TMP DP  RH WIND       PRES   REMARKS
ALBANY         MOCLDY    35  28  75 CALM      30.04S
GLENS FALLS    CLOUDY    35  30  82 S7        30.02S WCI  29
POUGHKEEPSIE   CLEAR     38  25  59 SW7       30.07S WCI  33
NEWBURGH       CLEAR     37  27  65 W8        30.07S WCI  31
MONTGOMERY     CLEAR     33  24  69 SW6       30.06S WCI  28
WHITE PLAINS   CLEAR     40  22  48 W8        30.09R WCI  34
ISLIP          PTCLDY    40  26  57 W6        30.11S
NEW YORK CITY  PTCLDY    47  23  38 W14G22    30.11S
CENTRAL PARK   CLEAR     43  24  47 CALM      30.13S
$$

NYZ005>009-017-018-044>046-055-056-210400-
CENTRAL


CITY           SKY/WX    TMP DP  RH WIND       PRES   REMARKS
FULTON         CLEAR     31  27  85 CALM      29.95F
SYRACUSE       PTCLDY    28  25  88 CALM      29.96F
ROME           CLOUDY    32  29  88 E7        30.00S WCI  26
ELMIRA         CLEAR     38  25  59 SW8       29.99S WCI  32
BINGHAMTON     CLEAR     34  22  61 SW13      29.97S WCI  25
MONTICELLO     CLEAR     31  24  75 SW3       30.05R
$$

NYZ026>034-041>043-087-210400-
NORTH


CITY           SKY/WX    TMP DP  RH WIND       PRES   REMARKS
WATERTOWN      CLOUDY    37  31  78 S6        29.92F WCI  32
FORT DRUM      NOT AVBL
OGDENSBURG     CLOUDY    28  26  91 CALM      29.93F
MASSENA        CLOUDY    26  24  92 CALM      29.98F
SARANAC LAKE   CLOUDY    24  24 100 MISG      29.90F
PLATTSBURGH    CLOUDY    27  19  72 CALM      30.01S
$$

NYZ001>004-010>016-019>021-085-210400-
WEST


CITY           SKY/WX    TMP DP  RH WIND       PRES   REMARKS
NIAGARA FALLS  CLEAR     44  29  55 SW20G26   29.87F
BUFFALO        MOCLDY    38  26  62 S16       29.89F WCI  29
DUNKIRK        CLEAR     40  25  55 S21G32    29.91F WCI  30
JAMESTOWN      CLEAR     35  22  58 S16       29.94F WCI  25
WELLSVILLE     CLEAR     38  21  50 SW13G26   29.95F WCI  30
ROCHESTER      CLEAR     38  27  64 SW9       29.91F WCI  31
PENN YAN       CLEAR     39  24  55 SW16G25   29.93S WCI  30
$$

             KEY
       WCI = WIND CHILL INDEX
       VSB = VISIBILITY
       HX  = HEAT INDEX
$$




USA.gov is the U.S. government's official web portal to all federal, state and local government web resources and services.